Terminal Aerodrome Forecast
Issued by NWS

Home | Current Version | Previous Version | Text Only | Print | Product List | Glossary On
Versions: 1 2 3 4 5 6 7 8 9 10 11 12 13 14 15 16 17 18 19 20 21 22 23 24 25
000
FTAK31 PAFA 240203 AAC
TAFAFA
TAF AMD
PAFA 240203Z 2402/2506 00000KT P6SM SCT120 BKN200
      TEMPO 2402/2404 13006KT
     FM240400 00000KT P6SM SCT200
     FM242100 23004KT P6SM SCT200=

USA.gov is the U.S. government's official web portal to all federal, state and local government web resources and services.